Wind_Speed
35 35 36 37 38 40 39 37 35 35 35 35 35 35 35 35 34 35 33 31 30 30 29 29 28 27 27 26 26 25 25 24 23 22 20 18 17 15 14 12 11 10 9 8 7 7 6 5 5
35 36 37 39 40 41 41 39 39 38 38 38 38 38 38 38 37 36 35 33 32 32 31 30 30 29 28 28 28 27 26 26 25 24 23 21 19 18 16 14 13 12 11 9 9 8 8 7 6
36 37 38 39 41 42 42 41 41 41 41 41 41 41 41 40 40 39 38 37 35 35 34 33 32 31 30 29 29 29 28 27 26 26 25 23 22 20 18 17 15 14 13 11 10 10 9 9 8
35 37 39 40 41 41 43 43 44 44 44 44 44 44 44 43 42 41 41 40 39 38 37 35 34 33 32 32 31 30 30 29 28 27 26 25 24 22 21 19 18 16 15 14 12 12 11 10 10
35 36 38 39 41 42 43 44 45 46 46 46 47 47 46 45 44 43 43 43 42 41 40 38 37 36 34 34 33 32 31 31 30 29 28 27 26 25 23 21 20 19 17 16 15 14 13 12 12
34 35 36 38 39 41 43 44 45 47 47 47 48 48 47 46 46 45 45 45 45 44 43 41 39 38 37 36 35 34 33 32 31 30 30 29 28 26 25 24 22 21 19 18 17 16 15 14 13
34 34 35 36 37 39 40 42 43 44 46 46 47 48 46 46 47 47 46 46 46 47 46 44 43 41 39 38 37 36 35 34 33 32 31 31 29 28 27 26 25 23 22 20 19 18 17 16 15
33 34 35 35 36 37 37 38 39 40 42 43 44 46 45 46 47 47 47 47 47 48 48 47 46 44 42 41 39 38 38 36 35 34 33 32 31 30 29 28 27 25 24 22 21 20 19 18 17
33 33 34 34 35 36 36 36 37 38 39 41 43 45 45 46 47 47 47 48 48 49 49 49 48 47 45 43 42 41 39 38 38 36 35 34 33 32 31 29 28 27 26 25 23 22 21 20 19
33 33 33 33 34 34 35 35 35 36 37 39 41 43 44 45 46 47 48 48 49 50 51 51 51 50 48 46 44 43 42 40 39 38 37 36 35 34 33 32 30 29 28 27 25 24 23 22 21
32 32 32 32 32 33 33 33 34 35 36 38 39 40 42 44 45 47 48 49 50 51 52 51 52 51 50 48 47 46 44 41 40 40 39 38 37 36 34 33 32 32 31 29 28 27 26 24 23
30 30 30 31 31 31 32 33 33 34 36 37 38 39 41 43 44 45 46 48 49 50 52 52 52 52 51 50 48 47 46 44 42 41 41 40 39 37 36 35 34 34 33 32 31 30 28 27 26
29 29 30 30 30 31 31 32 33 33 35 37 39 40 41 42 43 44 46 47 49 50 52 52 53 53 52 51 50 49 48 47 45 43 43 42 41 40 39 38 36 35 35 35 33 32 31 29 28
28 28 28 29 30 30 30 31 32 32 34 35 37 38 39 40 41 43 45 47 48 51 53 53 53 53 53 52 51 50 50 48 46 45 44 44 43 42 41 40 38 37 36 36 36 35 34 32 30
26 26 27 27 29 30 30 30 30 31 32 32 33 35 36 38 39 40 42 44 47 49 51 53 54 54 54 53 52 51 51 50 49 47 46 46 44 43 42 42 41 39 39 38 38 37 36 34 32
25 25 25 26 27 28 28 28 29 29 30 29 30 31 32 34 35 37 39 41 45 48 50 53 54 55 55 54 53 52 52 51 50 49 48 47 46 45 45 44 44 43 41 40 40 39 38 37 35
22 22 23 24 24 25 26 26 26 26 26 27 26 26 28 29 31 33 35 37 39 43 47 50 52 53 54 54 54 53 52 53 52 51 50 49 47 47 47 46 47 45 43 42 42 41 40 39 38
18 19 19 20 20 21 22 22 22 23 23 23 23 24 25 26 27 29 30 32 35 38 41 44 47 50 52 53 54 54 52 52 52 52 51 49 48 48 48 47 47 47 46 45 43 43 42 41 41
16 15 15 15 15 16 17 17 19 20 21 21 21 22 23 23 24 25 27 29 31 33 35 38 42 46 49 50 51 52 53 53 52 52 52 51 49 49 48 49 48 48 48 46 45 44 43 42 42
12 12 12 12 13 15 15 14 15 17 18 19 19 19 20 20 21 22 24 26 28 30 31 34 39 42 44 47 48 50 52 53 53 52 53 52 51 51 49 48 48 48 48 48 47 47 46 46 44
11 11 11 11 11 12 12 13 13 14 14 15 15 16 17 19 20 21 22 23 25 28 30 32 36 39 41 44 45 47 51 53 53 52 51 52 51 50 49 49 50 49 50 50 50 50 48 48 47
9 9 9 9 10 10 10 10 11 12 13 13 14 15 15 16 17 18 21 23 24 25 28 31 33 37 40 43 45 46 48 51 52 51 51 52 51 50 51 51 52 51 52 52 52 52 50 49 49
8 8 8 8 8 8 8 8 9 10 11 11 12 13 14 15 15 15 18 20 23 24 26 28 30 34 38 41 42 44 45 47 49 50 51 51 51 51 52 52 52 53 54 54 53 53 53 51 50
6 6 7 7 6 6 6 7 6 7 9 10 10 11 13 13 13 13 14 15 18 20 23 25 27 30 34 36 39 40 42 44 46 47 49 50 50 50 51 53 53 52 53 54 54 54 54 53 52
4 5 5 4 4 4 5 6 6 6 7 9 9 9 10 11 11 11 11 13 14 16 18 21 23 26 30 32 35 37 39 42 43 44 46 48 49 49 50 51 52 53 54 55 56 57 56 54 54
5 4 4 3 4 4 5 5 5 6 7 7 7 7 7 7 8 10 10 10 10 12 13 16 19 21 24 28 31 34 35 38 41 42 43 45 47 47 48 49 50 50 51 53 55 55 55 54 54
4 3 3 4 4 5 5 5 5 6 6 6 5 5 5 6 7 7 7 7 8 10 11 13 16 18 19 23 28 30 32 34 37 39 41 43 45 46 46 47 47 49 50 52 54 55 55 56 55
3 3 3 3 4 5 5 5 5 5 4 4 4 5 5 4 4 5 5 6 7 8 9 11 13 15 17 20 24 27 30 32 33 34 36 39 40 43 45 47 48 49 51 52 53 55 56 57 57
3 2 2 3 4 5 6 6 5 5 5 5 5 5 5 4 4 4 4 5 5 5 6 8 9 11 13 15 19 23 26 30 32 32 34 35 37 38 41 44 47 48 49 51 53 54 55 57 57
2 2 2 3 4 5 6 5 5 5 5 4 4 4 3 3 4 3 3 2 3 5 6 6 7 9 11 13 16 18 21 25 27 29 29 32 34 36 39 41 43 45 48 50 51 53 55 57 58
Wind_Direction
255 254 254 253 254 254 255 255 255 254 252 251 251 249 247 247 247 248 248 248 247 246 245 244 242 242 242 243 242 242 241 241 241 240 240 240 239 238 239 239 236 234 232 230 230 232 235 237 242
256 255 255 255 255 256 256 256 255 254 253 252 251 250 248 246 246 247 248 247 246 244 243 242 241 241 241 242 241 241 242 242 241 241 240 240 241 241 241 241 239 237 236 235 235 236 238 240 242
257 256 256 256 256 257 257 256 256 255 254 252 252 251 249 247 246 246 246 246 244 242 241 241 241 240 240 241 241 241 241 241 241 240 240 240 240 241 242 242 242 240 238 238 238 238 241 243 244
259 258 258 257 257 257 257 256 255 255 254 253 253 252 250 248 246 245 244 244 242 241 240 240 240 240 240 240 240 240 240 240 241 240 240 241 241 241 242 243 243 243 241 240 240 240 242 245 246
260 260 260 259 259 258 257 257 256 255 255 254 253 252 250 248 246 245 244 242 241 240 239 238 239 239 239 239 239 239 239 239 240 240 239 240 240 241 241 242 242 244 243 242 243 243 244 245 246
262 262 261 261 260 259 258 258 257 256 255 253 253 252 250 248 246 245 243 240 239 239 238 237 237 238 239 239 240 239 239 239 239 240 239 240 240 241 241 242 242 243 244 243 244 244 245 246 246
262 262 262 262 261 260 259 259 258 256 255 253 252 250 249 247 246 244 242 240 238 238 237 236 237 237 238 239 240 240 239 239 239 239 239 239 239 240 241 242 242 243 244 244 244 245 245 247 247
262 262 262 262 261 260 260 261 260 258 256 253 252 251 248 246 245 244 242 241 238 237 237 236 236 236 237 238 238 239 240 239 239 239 239 238 238 239 240 241 241 242 243 244 245 246 246 247 248
261 262 262 262 262 262 262 262 261 259 257 255 254 252 250 247 245 244 242 240 239 236 236 235 235 235 236 237 238 238 239 239 239 239 239 238 238 239 240 240 241 241 242 243 244 245 246 247 248
261 262 262 262 263 263 262 261 260 259 258 257 255 253 251 248 246 244 241 239 238 236 235 235 235 235 235 235 236 237 238 239 238 238 239 239 238 239 240 240 240 241 242 242 243 244 246 247 248
262 262 262 262 263 263 262 261 260 259 259 258 256 254 252 250 247 244 241 240 238 236 234 234 234 234 235 235 235 236 237 238 237 238 239 239 239 238 239 240 240 241 242 242 243 244 246 247 248
262 262 263 263 262 261 262 262 261 261 260 258 257 256 253 251 248 245 242 240 238 235 234 233 234 234 234 235 235 236 236 237 238 238 238 239 239 239 240 240 240 241 242 242 243 245 246 247 249
260 262 263 262 261 261 262 263 263 263 262 259 257 256 253 251 248 245 242 241 238 236 234 233 233 233 233 234 235 236 236 236 238 238 239 239 239 239 239 240 240 241 242 243 244 244 246 247 248
260 262 263 262 261 261 262 264 264 264 262 259 258 257 255 253 249 247 245 243 240 236 234 233 233 233 233 233 235 236 236 236 237 237 238 239 240 240 240 240 240 241 243 243 244 244 245 247 248
260 262 263 262 261 261 263 265 266 263 262 261 260 259 257 255 252 247 246 243 240 237 235 233 233 233 233 233 235 236 236 236 237 237 238 239 240 240 241 240 240 241 242 243 243 244 245 246 248
260 262 263 262 261 261 263 265 267 264 262 262 261 260 259 256 253 248 246 243 240 237 235 233 233 233 233 233 234 236 236 237 237 237 237 239 240 241 241 240 241 241 242 243 243 244 245 246 248
260 262 263 262 261 260 262 265 265 264 263 262 261 262 261 258 253 249 246 245 241 237 236 234 234 233 232 233 234 236 236 237 237 237 238 238 240 241 241 240 240 240 241 242 243 244 246 247 248
260 262 263 263 261 261 262 262 261 264 266 265 263 263 262 260 252 249 247 244 242 240 237 235 235 233 232 233 233 235 235 236 236 236 237 238 239 240 242 241 240 239 240 241 242 243 245 247 248
260 260 260 259 260 263 264 263 261 264 265 266 266 263 259 257 252 248 244 242 242 239 237 236 233 233 233 233 234 234 236 235 236 236 235 237 238 239 241 242 241 240 241 241 242 242 244 247 249
257 255 256 261 265 268 267 264 265 264 266 267 265 264 260 254 254 251 246 244 242 240 239 238 236 236 235 233 234 235 234 234 236 236 235 236 239 240 240 241 241 242 241 241 242 243 244 247 249
252 254 255 262 270 272 266 265 268 269 270 267 264 263 258 256 255 253 251 247 246 243 242 241 238 237 236 235 235 235 236 236 235 235 237 237 239 240 240 242 242 242 242 243 244 244 243 245 248
251 251 255 265 271 267 263 263 265 271 271 271 272 264 261 260 259 254 250 248 249 245 246 243 240 238 237 236 236 237 236 234 234 235 237 238 239 240 242 243 243 243 243 244 246 245 245 246 247
252 254 261 268 270 267 264 267 265 269 270 272 275 269 265 262 262 261 257 254 251 248 245 245 242 240 237 237 236 236 235 234 234 236 237 240 241 242 243 244 245 243 243 243 245 245 246 246 247
251 258 266 272 275 273 271 273 272 274 276 277 278 277 269 267 264 269 267 260 255 252 248 247 244 242 239 240 239 236 234 235 236 237 239 240 242 243 244 245 245 244 243 244 245 245 246 247 247
255 265 272 273 276 284 282 277 275 285 288 287 286 285 274 266 265 267 265 262 259 254 251 251 247 245 242 240 237 234 237 238 239 240 240 241 243 244 245 245 246 246 245 245 245 245 246 246 247
257 258 262 277 288 297 301 295 283 293 300 295 290 292 280 268 262 266 268 266 262 257 252 249 245 243 242 239 237 238 240 239 239 242 243 243 244 245 246 245 247 248 246 245 245 246 246 247 248
251 245 258 282 296 309 313 309 292 299 301 291 292 297 291 280 267 269 273 270 264 264 257 250 244 242 242 240 239 240 240 240 243 244 245 245 245 244 246 246 247 248 248 247 247 246 246 247 249
234 241 262 284 302 310 311 315 309 301 296 287 285 293 297 295 280 278 284 279 275 277 270 261 243 244 246 244 240 240 242 241 243 244 244 246 246 245 246 247 248 248 248 248 248 248 248 249 250
218 249 280 289 301 309 310 312 316 312 306 302 297 299 305 312 314 310 288 270 286 290 280 263 249 247 253 253 246 242 242 243 245 246 248 248 247 247 247 248 248 249 249 249 250 250 249 250 251
230 268 291 303 312 319 318 315 312 321 318 315 318 311 308 324 317 314 325 321 301 287 286 280 270 267 262 263 259 254 248 245 245 248 251 250 249 249 250 250 250 250 250 251 252 252 252 252 252
Height
5814 5815 5817 5819 5820 5820 5822 5824 5826 5828 5829 5831 5832 5834 5837 5839 5841 5844 5845 5846 5848 5850 5852 5854 5856 5859 5861 5863 5864 5866 5867 5868 5870 5871 5873 5874 5875 5875 5876 5876 5877 5877 5877 5878 5878 5878 5878 5878 5879
5807 5808 5810 5811 5811 5812 5815 5817 5818 5820 5821 5823 5824 5826 5828 5830 5833 5835 5837 5840 5842 5844 5846 5849 5851 5854 5856 5858 5860 5862 5863 5865 5866 5868 5869 5871 5872 5873 5874 5874 5875 5875 5876 5876 5877 5877 5877 5877 5877
5799 5800 5802 5802 5803 5805 5806 5808 5809 5810 5812 5814 5815 5817 5819 5822 5825 5828 5830 5832 5835 5838 5840 5843 5846 5848 5851 5853 5855 5857 5859 5861 5862 5864 5866 5868 5869 5870 5871 5872 5873 5873 5874 5874 5875 5875 5876 5876 5876
5791 5792 5794 5795 5795 5796 5797 5798 5799 5801 5802 5804 5805 5807 5810 5814 5816 5819 5822 5825 5828 5831 5834 5837 5840 5843 5845 5848 5850 5852 5854 5856 5858 5860 5862 5864 5866 5867 5868 5869 5870 5871 5872 5873 5873 5873 5874 5874 5875
5783 5784 5785 5785 5786 5787 5787 5788 5789 5790 5792 5793 5795 5797 5800 5803 5806 5809 5813 5816 5819 5823 5827 5830 5833 5836 5839 5842 5844 5847 5849 5852 5854 5856 5858 5860 5861 5863 5865 5866 5867 5868 5869 5870 5871 5871 5872 5872 5872
5775 5776 5776 5777 5777 5777 5777 5777 5778 5779 5781 5782 5783 5785 5789 5792 5795 5799 5802 5806 5810 5814 5819 5823 5826 5829 5833 5836 5838 5841 5843 5846 5849 5851 5853 5855 5857 5859 5861 5862 5864 5865 5866 5867 5868 5869 5869 5870 5870
5768 5767 5767 5768 5767 5767 5768 5767 5768 5768 5769 5771 5772 5774 5778 5782 5784 5788 5792 5797 5801 5805 5810 5814 5818 5822 5825 5829 5832 5835 5838 5840 5843 5846 5848 5850 5852 5854 5856 5858 5860 5861 5862 5864 5865 5866 5866 5867 5867
5759 5759 5759 5759 5759 5759 5759 5758 5758 5758 5759 5760 5762 5764 5768 5771 5773 5777 5782 5787 5791 5796 5800 5805 5809 5814 5818 5822 5825 5829 5831 5834 5837 5840 5842 5844 5847 5849 5851 5853 5855 5857 5858 5860 5861 5862 5863 5864 5865
5750 5752 5751 5750 5750 5750 5749 5749 5749 5749 5750 5751 5752 5754 5758 5760 5763 5767 5771 5776 5780 5786 5791 5795 5800 5805 5809 5814 5817 5821 5824 5827 5831 5833 5836 5839 5841 5844 5846 5848 5851 5852 5854 5855 5857 5858 5859 5860 5861
5742 5743 5743 5742 5741 5741 5740 5740 5740 5741 5741 5742 5742 5744 5746 5749 5752 5756 5761 5765 5770 5775 5780 5785 5791 5796 5800 5805 5809 5813 5817 5820 5824 5827 5830 5833 5835 5838 5840 5843 5845 5847 5849 5851 5852 5854 5855 5856 5857
5734 5734 5734 5733 5732 5732 5732 5732 5732 5733 5733 5733 5734 5735 5736 5738 5741 5745 5750 5754 5759 5763 5769 5775 5780 5786 5791 5796 5801 5805 5809 5813 5816 5820 5823 5826 5829 5832 5834 5837 5839 5842 5844 5846 5847 5849 5851 5852 5853
5726 5726 5726 5725 5725 5725 5725 5725 5725 5725 5725 5725 5725 5725 5726 5728 5731 5735 5739 5744 5748 5753 5759 5764 5770 5776 5781 5786 5792 5796 5801 5805 5809 5812 5816 5819 5822 5825 5828 5831 5833 5836 5838 5840 5842 5844 5845 5847 5848
5718 5719 5718 5718 5718 5718 5718 5718 5718 5718 5717 5716 5716 5717 5717 5719 5721 5725 5729 5733 5737 5742 5748 5754 5760 5766 5771 5777 5782 5787 5792 5796 5800 5804 5808 5811 5815 5818 5821 5824 5827 5829 5832 5834 5836 5838 5840 5841 5843
5711 5711 5711 5710 5710 5711 5711 5711 5711 5710 5709 5708 5707 5708 5708 5710 5713 5715 5719 5723 5728 5732 5738 5744 5749 5755 5761 5767 5772 5777 5782 5787 5791 5796 5800 5803 5807 5811 5814 5817 5820 5822 5825 5827 5830 5832 5834 5836 5837
5704 5705 5704 5704 5704 5704 5704 5704 5703 5702 5701 5701 5700 5700 5700 5701 5703 5706 5709 5713 5717 5722 5727 5733 5738 5744 5750 5757 5763 5768 5772 5777 5782 5787 5791 5795 5799 5802 5806 5809 5812 5815 5817 5820 5823 5825 5827 5829 5831
5698 5698 5698 5698 5697 5697 5699 5698 5696 5694 5694 5694 5693 5693 5693 5693 5694 5697 5699 5703 5706 5711 5716 5721 5727 5733 5740 5746 5752 5757 5762 5767 5772 5777 5782 5786 5790 5793 5797 5801 5804 5807 5810 5812 5815 5818 5820 5822 5824
5692 5692 5692 5692 5691 5691 5691 5691 5689 5688 5688 5688 5687 5687 5686 5686 5687 5689 5691 5693 5697 5701 5705 5711 5716 5722 5728 5735 5740 5746 5752 5757 5762 5767 5772 5776 5780 5784 5788 5791 5795 5798 5801 5804 5807 5810 5813 5815 5817
5688 5687 5686 5686 5686 5686 5685 5685 5684 5683 5682 5682 5681 5681 5681 5680 5681 5682 5683 5685 5689 5692 5696 5701 5706 5711 5717 5723 5729 5735 5741 5746 5751 5757 5762 5766 5770 5774 5778 5781 5785 5789 5792 5795 5799 5802 5804 5806 5808
5683 5683 5682 5682 5682 5682 5681 5680 5679 5678 5677 5677 5676 5676 5675 5675 5675 5675 5677 5679 5681 5684 5687 5692 5696 5701 5706 5712 5718 5724 5729 5735 5740 5746 5751 5755 5759 5764 5768 5771 5775 5779 5783 5786 5790 5793 5795 5797 5799
5679 5679 5679 5679 5679 5678 5677 5676 5675 5674 5673 5672 5672 5671 5671 5671 5671 5671 5672 5673 5675 5677 5680 5683 5687 5692 5696 5702 5707 5712 5718 5723 5729 5735 5740 5745 5749 5753 5757 5761 5765 5769 5773 5776 5780 5783 5785 5788 5790
5676 5676 5676 5676 5676 5674 5674 5673 5672 5671 5669 5669 5668 5667 5666 5666 5666 5666 5667 5668 5669 5671 5673 5676 5679 5683 5687 5692 5697 5701 5706 5711 5718 5723 5728 5734 5738 5742 5747 5751 5755 5758 5762 5766 5769 5773 5775 5778 5780
5673 5673 5673 5673 5673 5672 5672 5670 5670 5668 5666 5665 5664 5663 5662 5662 5661 5661 5661 5661 5662 5664 5666 5669 5671 5674 5678 5682 5687 5692 5696 5702 5708 5713 5718 5724 5727 5732 5736 5740 5743 5747 5751 5755 5758 5762 5765 5767 5769
5671 5671 5671 5670 5670 5669 5669 5668 5668 5665 5664 5662 5661 5659 5659 5658 5657 5656 5656 5656 5657 5658 5659 5661 5663 5666 5669 5673 5677 5682 5686 5692 5697 5702 5708 5712 5716 5720 5724 5728 5732 5736 5740 5744 5747 5750 5753 5756 5758
5669 5669 5669 5668 5668 5668 5667 5666 5665 5663 5661 5660 5658 5657 5655 5654 5653 5653 5652 5651 5651 5651 5652 5654 5655 5658 5660 5663 5667 5672 5677 5682 5687 5692 5696 5701 5705 5709 5713 5717 5720 5724 5728 5732 5735 5737 5741 5744 5746
5667 5668 5668 5667 5666 5666 5665 5663 5663 5661 5659 5657 5656 5654 5652 5651 5650 5649 5647 5646 5646 5646 5646 5647 5649 5651 5653 5656 5659 5664 5668 5673 5677 5682 5686 5690 5694 5698 5702 5705 5709 5712 5716 5719 5722 5725 5728 5731 5734
5666 5667 5667 5667 5665 5664 5663 5661 5661 5659 5657 5655 5654 5652 5650 5649 5647 5645 5644 5643 5642 5642 5642 5643 5644 5645 5647 5650 5653 5656 5660 5664 5668 5672 5676 5679 5683 5687 5690 5693 5697 5700 5703 5706 5709 5712 5716 5718 5721
5665 5665 5665 5665 5664 5663 5661 5661 5660 5657 5656 5654 5652 5651 5649 5647 5645 5643 5641 5640 5639 5639 5639 5639 5640 5640 5642 5643 5646 5649 5652 5656 5660 5663 5665 5668 5672 5675 5679 5682 5685 5688 5691 5694 5696 5699 5702 5705 5708
5664 5664 5664 5663 5662 5661 5661 5659 5658 5656 5654 5653 5651 5649 5647 5645 5643 5641 5640 5638 5637 5636 5635 5635 5635 5636 5636 5638 5640 5642 5645 5648 5651 5654 5656 5659 5661 5664 5667 5670 5673 5676 5679 5681 5683 5685 5688 5691 5694
5663 5663 5662 5662 5661 5660 5659 5660 5656 5654 5653 5651 5649 5648 5645 5644 5642 5640 5638 5636 5635 5634 5633 5632 5631 5631 5632 5633 5634 5636 5638 5641 5643 5646 5648 5649 5651 5653 5656 5659 5661 5663 5666 5668 5670 5672 5675 5677 5680
5662 5661 5661 5661 5660 5658 5657 5660 5655 5653 5651 5649 5648 5646 5644 5643 5641 5639 5637 5635 5634 5632 5631 5630 5629 5628 5628 5628 5629 5630 5632 5633 5636 5637 5639 5640 5642 5643 5645 5647 5650 5652 5654 5655 5657 5659 5661 5663 5666